Vorticity
7 3 3 3 2 2 2 2 2 2 4 6 6 5 8 7 5 7 8 7 9 10
5 4 3 2 2 2 2 1 1 2 3 5 6 5 10 6 6 8 7 9 10 8
3 3 3 1 2 2 1 1 1 2 3 5 5 8 8 6 7 8 10 9 8 7
3 4 2 1 1 1 1 1 1 2 3 5 5 9 7 8 9 10 9 7 6 7
3 3 2 2 1 1 1 1 1 3 4 5 9 8 9 10 10 8 7 6 7 8
2 3 2 2 2 1 1 2 3 3 5 9 9 9 10 10 9 7 7 8 9 9
3 2 2 3 1 1 2 3 4 5 9 9 9 10 11 9 7 7 8 8 9 9
2 3 3 2 2 3 4 4 5 9 9 10 11 11 9 7 7 8 8 9 7 6
4 3 2 3 4 6 6 5 9 9 10 10 11 8 7 7 7 9 8 7 7 8
3 4 6 8 8 6 6 8 10 10 10 11 9 7 7 8 9 7 9 8 9 11
9 10 10 8 6 7 8 11 9 10 10 9 8 8 8 7 7 9 9 8 12 13
11 10 6 6 7 10 10 8 11 11 8 8 8 8 8 8 8 9 8 11 13 18
6 6 7 8 10 8 9 12 11 8 8 8 8 9 8 8 8 9 10 12 20 18
7 9 10 8 7 11 12 10 7 7 9 9 9 7 8 8 10 10 12 19 19 13
Height
3071 3073 3074 3075 3075 3075 3074 3072 3070 3068 3065 3061 3058 3054 3049 3045 3041 3036 3031 3026 3020 3015
3067 3069 3070 3071 3071 3070 3069 3067 3065 3062 3059 3055 3051 3047 3042 3037 3033 3028 3023 3017 3012 3007
3063 3065 3066 3066 3066 3065 3064 3062 3059 3056 3053 3049 3043 3038 3034 3029 3024 3019 3015 3008 3003 2997
3059 3061 3061 3061 3061 3060 3058 3056 3053 3050 3046 3041 3035 3030 3026 3021 3016 3011 3005 3000 2993 2987
3055 3056 3057 3056 3056 3054 3052 3050 3047 3043 3038 3033 3028 3023 3018 3013 3007 3001 2995 2988 2982 2975
3051 3051 3051 3051 3050 3048 3046 3043 3040 3035 3031 3026 3020 3015 3009 3003 2998 2991 2984 2978 2970 2963
3046 3046 3046 3045 3044 3042 3040 3036 3032 3027 3022 3017 3012 3006 3000 2994 2988 2982 2975 2968 2960 2951
3041 3041 3040 3040 3038 3036 3032 3028 3024 3019 3013 3008 3003 2997 2990 2983 2977 2971 2964 2957 2949 2940
3035 3035 3035 3033 3031 3028 3025 3020 3015 3010 3005 3000 2994 2987 2981 2975 2968 2962 2954 2946 2938 2929
3030 3030 3028 3026 3024 3021 3016 3011 3006 3001 2997 2991 2984 2979 2973 2966 2959 2951 2943 2935 2928 2919
3024 3023 3021 3019 3016 3012 3008 3003 2999 2994 2988 2983 2977 2971 2964 2957 2949 2941 2934 2926 2918 2909
3017 3016 3014 3012 3008 3004 3000 2996 2991 2985 2981 2975 2969 2962 2955 2947 2939 2932 2925 2918 2909 2899
3011 3010 3007 3004 3001 2997 2993 2988 2984 2979 2972 2965 2960 2953 2945 2937 2928 2921 2914 2907 2897 2887
3005 3003 3000 2997 2994 2990 2985 2981 2976 2970 2965 2959 2950 2943 2936 2928 2920 2912 2903 2895 2888 2879